Location: Newark
(3.1475°N, 101.6933°E)
Time: 15:29:27
(UTC+00:00)

Envisat - Pass Details

Date: 26 September 2019
Orbit: 764 x 766 km, 98.1° (Epoch: 16 October)

Event Time Altitude Azimuth Distance (km) Brightness Sun altitude
Rises 12:07:11 0° 179° (S) 3,228 6.2 -15.7°
Reaches altitude 10° 12:09:33 10° 184° (S) 2,301 5.5 -16.3°
Maximum altitude 12:14:25 48° 258° (WSW) 990 4.0 -17.5°
Drops below altitude 10° 12:19:17 10° 332° (NNW) 2,294 5.8 -18.7°
Sets 12:21:39 0° 338° (NNW) 3,217 6.5 -19.3°
